Saint Bonnet de Bellac- Haute Vienne - France
Donnes mto: vendredi, 26/10/2012
Date Horaire Temp. E. Hum. E. P.atmo. Pluie Vent Direction Direction Ensoleilleme Solaire P. de rose Temp au vent Rafales
26/10/2012 00:00 11,0 C 94 % 1010,1 hPa 0,0 mm 1,8 km/h (1 Bft) SE 135 0 min 0 W/m 10,1 C 11,0 C 3,6 km/h (1 Bft)
26/10/2012 00:10 11,1 C 94 % 1010,1 hPa 0,0 mm 0,0 km/h (0 Bft) E-SE 112 0 min 0 W/m 10,2 C 11,1 C 0,0 km/h (0 Bft)
26/10/2012 00:20 11,1 C 94 % 1010,2 hPa 0,0 mm 0,0 km/h (0 Bft) E-SE 112 0 min 0 W/m 10,2 C 11,1 C 0,0 km/h (0 Bft)
26/10/2012 00:30 11,2 C 94 % 1010,2 hPa 0,0 mm 0,7 km/h (0 Bft) SE 135 0 min 0 W/m 10,3 C 11,2 C 3,2 km/h (1 Bft)
26/10/2012 00:40 11,3 C 93 % 1010,3 hPa 0,0 mm 1,8 km/h (1 Bft) E-SE 112 0 min 0 W/m 10,2 C 11,3 C 4,0 km/h (1 Bft)
26/10/2012 00:50 11,5 C 93 % 1010,3 hPa 0,0 mm 1,1 km/h (1 Bft) E 90 0 min 0 W/m 10,4 C 11,5 C 3,6 km/h (1 Bft)
26/10/2012 01:00 11,8 C 93 % 1010,3 hPa 0,0 mm 1,8 km/h (1 Bft) SE 135 0 min 0 W/m 10,7 C 11,8 C 4,0 km/h (1 Bft)
26/10/2012 01:10 12,3 C 91 % 1010,3 hPa 0,0 mm 0,7 km/h (0 Bft) E-SE 112 0 min 0 W/m 10,9 C 12,3 C 0,7 km/h (0 Bft)
26/10/2012 01:20 12,8 C 89 % 1010,3 hPa 0,0 mm 2,2 km/h (1 Bft) E 90 0 min 0 W/m 11,0 C 12,8 C 4,0 km/h (1 Bft)
26/10/2012 01:30 12,9 C 87 % 1010,3 hPa 0,0 mm 2,2 km/h (1 Bft) N 360 0 min 0 W/m 10,8 C 12,9 C 2,2 km/h (1 Bft)
26/10/2012 01:40 13,1 C 86 % 1010,2 hPa 0,0 mm 0,0 km/h (0 Bft) E-SE 112 0 min 0 W/m 10,8 C 13,1 C 0,0 km/h (0 Bft)
26/10/2012 01:50 13,2 C 86 % 1010,2 hPa 0,0 mm 1,8 km/h (1 Bft) E-SE 112 0 min 0 W/m 10,9 C 13,2 C 4,0 km/h (1 Bft)
26/10/2012 02:00 13,8 C 84 % 1010,2 hPa 0,0 mm 0,7 km/h (0 Bft) E-SE 112 0 min 0 W/m 11,1 C 13,8 C 4,0 km/h (1 Bft)
26/10/2012 02:10 14,3 C 82 % 1010,2 hPa 0,0 mm 4,3 km/h (1 Bft) E 90 0 min 0 W/m 11,3 C 14,3 C 7,9 km/h (2 Bft)
26/10/2012 02:20 14,5 C 81 % 1010,3 hPa 0,0 mm 0,4 km/h (0 Bft) S-SE 157 0 min 0 W/m 11,3 C 14,5 C 0,4 km/h (0 Bft)
26/10/2012 02:30 15,1 C 81 % 1010,2 hPa 0,0 mm 0,4 km/h (0 Bft) E-SE 112 0 min 0 W/m 11,9 C 15,1 C 0,4 km/h (0 Bft)
26/10/2012 02:40 15,8 C 80 % 1010,3 hPa 0,0 mm 2,2 km/h (1 Bft) E 90 0 min 0 W/m 12,4 C 15,8 C 4,3 km/h (1 Bft)
26/10/2012 02:50 15,8 C 80 % 1010,1 hPa 0,0 mm 0,7 km/h (0 Bft) E 90 0 min 0 W/m 12,4 C 15,8 C 0,7 km/h (0 Bft)
26/10/2012 03:00 15,8 C 80 % 1010,1 hPa 0,0 mm 3,2 km/h (1 Bft) E-SE 112 0 min 0 W/m 12,4 C 15,8 C 4,3 km/h (1 Bft)
26/10/2012 03:10 16,0 C 80 % 1010,1 hPa 0,0 mm 3,2 km/h (1 Bft) N 360 0 min 0 W/m 12,5 C 16,0 C 3,2 km/h (1 Bft)
26/10/2012 03:20 16,3 C 79 % 1009,9 hPa 0,0 mm 0,0 km/h (0 Bft) E 90 0 min 0 W/m 12,6 C 16,3 C 0,0 km/h (0 Bft)
26/10/2012 03:30 16,6 C 79 % 1010,0 hPa 0,0 mm 2,9 km/h (1 Bft) E-SE 112 0 min 0 W/m 12,9 C 16,6 C 3,2 km/h (1 Bft)
26/10/2012 03:40 17,1 C 77 % 1010,1 hPa 0,0 mm 0,4 km/h (0 Bft) E-SE 112 0 min 0 W/m 13,0 C 17,1 C 1,4 km/h (1 Bft)
26/10/2012 03:50 17,8 C 76 % 1010,0 hPa 0,0 mm 2,5 km/h (1 Bft) SE 135 0 min 0 W/m 13,5 C 17,8 C 4,0 km/h (1 Bft)
26/10/2012 04:00 18,4 C 74 % 1009,8 hPa 0,0 mm 4,0 km/h (1 Bft) SE 135 0 min 0 W/m 13,7 C 18,4 C 4,3 km/h (1 Bft)
26/10/2012 04:10 18,9 C 72 % 1009,6 hPa 0,0 mm 1,4 km/h (1 Bft) E 90 0 min 0 W/m 13,7 C 18,9 C 4,0 km/h (1 Bft)
26/10/2012 04:20 19,4 C 71 % 1009,6 hPa 0,0 mm 1,4 km/h (1 Bft) SE 135 0 min 0 W/m 14,0 C 19,4 C 6,1 km/h (2 Bft)
26/10/2012 04:30 19,9 C 70 % 1009,4 hPa 0,0 mm 5,4 km/h (2 Bft) SE 135 0 min 0 W/m 14,3 C 19,9 C 8,3 km/h (2 Bft)
26/10/2012 04:40 20,3 C 68 % 1009,4 hPa 0,0 mm 4,3 km/h (1 Bft) E-SE 112 0 min 0 W/m 14,2 C 20,3 C 9,7 km/h (2 Bft)
26/10/2012 04:50 20,3 C 65 % 1009,3 hPa 0,0 mm 5,4 km/h (2 Bft) SE 135 0 min 0 W/m 13,5 C 20,3 C 7,6 km/h (2 Bft)
26/10/2012 05:00 20,3 C 65 % 1009,3 hPa 0,0 mm 7,6 km/h (2 Bft) S 180 0 min 0 W/m 13,5 C 20,3 C 8,3 km/h (2 Bft)
26/10/2012 05:10 20,0 C 65 % 1009,1 hPa 0,0 mm 3,2 km/h (1 Bft) S-SE 157 0 min 0 W/m 13,2 C 20,0 C 5,8 km/h (2 Bft)
26/10/2012 05:20 20,1 C 67 % 1009,2 hPa 0,0 mm 4,7 km/h (1 Bft) E-SE 112 0 min 0 W/m 13,8 C 20,1 C 6,1 km/h (2 Bft)
26/10/2012 05:30 19,9 C 65 % 1009,1 hPa 0,0 mm 3,6 km/h (1 Bft) E-SE 112 0 min 0 W/m 13,1 C 19,9 C 3,6 km/h (1 Bft)
26/10/2012 05:40 20,1 C 66 % 1009,0 hPa 0,0 mm 2,2 km/h (1 Bft) E-SE 112 0 min 0 W/m 13,5 C 20,1 C 2,2 km/h (1 Bft)
26/10/2012 05:50 20,3 C 67 % 1008,9 hPa 0,0 mm 2,2 km/h (1 Bft) S 180 0 min 0 W/m 14,0 C 20,3 C 7,2 km/h (2 Bft)
26/10/2012 06:00 20,7 C 65 % 1008,8 hPa 0,0 mm 2,2 km/h (1 Bft) S 180 0 min 0 W/m 13,9 C 20,7 C 6,8 km/h (2 Bft)
26/10/2012 06:10 20,8 C 65 % 1008,7 hPa 0,0 mm 0,0 km/h (0 Bft) S 180 0 min 0 W/m 14,0 C 20,8 C 3,6 km/h (1 Bft)
26/10/2012 06:20 20,8 C 65 % 1008,5 hPa 0,0 mm 0,0 km/h (0 Bft) S-SO 202 0 min 0 W/m 14,0 C 20,8 C 1,4 km/h (1 Bft)
26/10/2012 06:30 20,8 C 65 % 1008,5 hPa 0,0 mm 4,7 km/h (1 Bft) S 180 0 min 0 W/m 14,0 C 20,8 C 4,7 km/h (1 Bft)
26/10/2012 06:40 20,6 C 66 % 1008,4 hPa 0,0 mm 0,7 km/h (0 Bft) S 180 0 min 0 W/m 14,0 C 20,6 C 3,6 km/h (1 Bft)
26/10/2012 06:50 20,6 C 67 % 1008,2 hPa 0,0 mm 0,7 km/h (0 Bft) S-SE 157 0 min 0 W/m 14,3 C 20,6 C 4,3 km/h (1 Bft)
26/10/2012 07:00 20,6 C 67 % 1008,2 hPa 0,0 mm 5,4 km/h (2 Bft) SE 135 0 min 0 W/m 14,3 C 20,6 C 7,6 km/h (2 Bft)
26/10/2012 07:10 20,6 C 66 % 1008,1 hPa 0,0 mm 0,4 km/h (0 Bft) S-SO 202 0 min 0 W/m 14,0 C 20,6 C 3,6 km/h (1 Bft)
26/10/2012 07:20 20,4 C 68 % 1008,0 hPa 0,0 mm 0,7 km/h (0 Bft) S-SO 202 0 min 0 W/m 14,3 C 20,4 C 3,2 km/h (1 Bft)
26/10/2012 07:30 20,2 C 68 % 1008,0 hPa 0,0 mm 2,2 km/h (1 Bft) S 180 0 min 0 W/m 14,1 C 20,2 C 2,2 km/h (1 Bft)
26/10/2012 07:40 19,9 C 69 % 1008,0 hPa 0,0 mm 0,4 km/h (0 Bft) S-SE 157 0 min 0 W/m 14,0 C 19,9 C 2,9 km/h (1 Bft)
26/10/2012 07:50 19,8 C 70 % 1007,9 hPa 0,0 mm 1,8 km/h (1 Bft) S 180 0 min 0 W/m 14,2 C 19,8 C 5,8 km/h (2 Bft)
26/10/2012 08:00 19,4 C 70 % 1007,9 hPa 0,0 mm 0,0 km/h (0 Bft) S 180 0 min 0 W/m 13,8 C 19,4 C 0,0 km/h (0 Bft)
26/10/2012 08:10 19,2 C 71 % 1007,9 hPa 0,0 mm 0,0 km/h (0 Bft) S 180 0 min 0 W/m 13,8 C 19,2 C 0,0 km/h (0 Bft)
26/10/2012 08:20 18,9 C 73 % 1007,8 hPa 0,0 mm 0,0 km/h (0 Bft) S 180 0 min 0 W/m 13,9 C 18,9 C 0,0 km/h (0 Bft)
26/10/2012 08:30 18,6 C 74 % 1007,7 hPa 0,0 mm 0,0 km/h (0 Bft) S 180 0 min 0 W/m 13,9 C 18,6 C 0,0 km/h (0 Bft)
26/10/2012 08:40 18,3 C 74 % 1007,6 hPa 0,0 mm 0,0 km/h (0 Bft) S 180 0 min 0 W/m 13,6 C 18,3 C 0,0 km/h (0 Bft)
26/10/2012 08:50 18,1 C 75 % 1007,6 hPa 0,0 mm 0,0 km/h (0 Bft) S 180 0 min 0 W/m 13,6 C 18,1 C 0,0 km/h (0 Bft)
26/10/2012 09:00 17,8 C 76 % 1007,6 hPa 0,0 mm 0,0 km/h (0 Bft) S 180 0 min 0 W/m 13,5 C 17,8 C 0,0 km/h (0 Bft)
26/10/2012 09:10 17,7 C 77 % 1007,5 hPa 0,0 mm 0,0 km/h (0 Bft) S 180 0 min 0 W/m 13,6 C 17,7 C 0,0 km/h (0 Bft)
26/10/2012 09:20 17,6 C 77 % 1007,6 hPa 0,0 mm 0,0 km/h (0 Bft) S 180 0 min 0 W/m 13,5 C 17,6 C 0,0 km/h (0 Bft)
26/10/2012 09:30 17,4 C 77 % 1007,5 hPa 0,0 mm 0,0 km/h (0 Bft) S 180 0 min 0 W/m 13,3 C 17,4 C 0,0 km/h (0 Bft)
26/10/2012 09:40 17,2 C 78 % 1007,5 hPa 0,0 mm 0,0 km/h (0 Bft) S 180 0 min 0 W/m 13,3 C 17,2 C 0,0 km/h (0 Bft)
26/10/2012 09:50 16,9 C 79 % 1007,5 hPa 0,0 mm 0,0 km/h (0 Bft) S 180 0 min 0 W/m 13,2 C 16,9 C 0,0 km/h (0 Bft)
26/10/2012 10:00 16,7 C 79 % 1007,4 hPa 0,0 mm 0,0 km/h (0 Bft) S 180 0 min 0 W/m 13,0 C 16,7 C 0,0 km/h (0 Bft)
26/10/2012 10:10 16,4 C 79 % 1007,5 hPa 0,0 mm 0,0 km/h (0 Bft) S 180 0 min 0 W/m 12,7 C 16,4 C 0,0 km/h (0 Bft)
26/10/2012 10:20 16,2 C 80 % 1007,5 hPa 0,0 mm 0,0 km/h (0 Bft) S 180 0 min 0 W/m 12,7 C 16,2 C 0,0 km/h (0 Bft)
26/10/2012 10:30 15,9 C 81 % 1007,4 hPa 0,0 mm 0,0 km/h (0 Bft) S 180 0 min 0 W/m 12,6 C 15,9 C 0,0 km/h (0 Bft)
26/10/2012 10:40 15,8 C 81 % 1007,4 hPa 0,0 mm 0,0 km/h (0 Bft) S-SE 157 0 min 0 W/m 12,5 C 15,8 C 0,0 km/h (0 Bft)
26/10/2012 10:50 15,6 C 81 % 1007,4 hPa 0,0 mm 0,0 km/h (0 Bft) S-SE 157 0 min 0 W/m 12,3 C 15,6 C 0,0 km/h (0 Bft)
26/10/2012 11:00 15,4 C 82 % 1007,4 hPa 0,0 mm 0,0 km/h (0 Bft) S-SE 157 0 min 0 W/m 12,3 C 15,4 C 0,0 km/h (0 Bft)
26/10/2012 11:10 15,3 C 83 % 1007,4 hPa 0,0 mm 0,0 km/h (0 Bft) S-SE 157 0 min 0 W/m 12,4 C 15,3 C 0,0 km/h (0 Bft)
26/10/2012 11:20 15,1 C 84 % 1007,4 hPa 0,0 mm 0,0 km/h (0 Bft) S-SE 157 0 min 0 W/m 12,4 C 15,1 C 0,0 km/h (0 Bft)
26/10/2012 11:30 14,9 C 84 % 1007,3 hPa 0,0 mm 0,0 km/h (0 Bft) SE 135 0 min 0 W/m 12,2 C 14,9 C 3,2 km/h (1 Bft)
26/10/2012 11:40 14,8 C 84 % 1007,2 hPa 0,0 mm 3,2 km/h (1 Bft) E 90 0 min 0 W/m 12,1 C 14,8 C 4,3 km/h (1 Bft)
26/10/2012 11:50 14,8 C 86 % 1007,1 hPa 0,0 mm 0,0 km/h (0 Bft) E-SE 112 0 min 0 W/m 12,5 C 14,8 C 0,0 km/h (0 Bft)
26/10/2012 12:00 14,7 C 86 % 1007,1 hPa 0,0 mm 0,0 km/h (0 Bft) E-SE 112 0 min 0 W/m 12,4 C 14,7 C 0,0 km/h (0 Bft)
26/10/2012 12:10 14,6 C 86 % 1007,0 hPa 0,0 mm 0,0 km/h (0 Bft) E-SE 112 0 min 0 W/m 12,3 C 14,6 C 0,0 km/h (0 Bft)
26/10/2012 12:20 14,6 C 87 % 1007,0 hPa 0,0 mm 0,0 km/h (0 Bft) SE 135 0 min 0 W/m 12,5 C 14,6 C 0,0 km/h (0 Bft)
26/10/2012 12:30 14,6 C 87 % 1006,8 hPa 0,0 mm 0,0 km/h (0 Bft) E-SE 112 0 min 0 W/m 12,5 C 14,6 C 0,0 km/h (0 Bft)
26/10/2012 12:40 14,5 C 86 % 1006,9 hPa 0,0 mm 1,8 km/h (1 Bft) E-SE 112 0 min 0 W/m 12,2 C 14,5 C 4,3 km/h (1 Bft)
26/10/2012 12:50 14,5 C 86 % 1006,8 hPa 0,0 mm 0,0 km/h (0 Bft) E-SE 112 0 min 0 W/m 12,2 C 14,5 C 0,0 km/h (0 Bft)
26/10/2012 13:00 14,5 C 87 % 1006,9 hPa 0,0 mm 1,4 km/h (1 Bft) E 90 0 min 0 W/m 12,4 C 14,5 C 4,0 km/h (1 Bft)
26/10/2012 13:10 14,4 C 87 % 1006,8 hPa 0,0 mm 0,7 km/h (0 Bft) E 90 0 min 0 W/m 12,3 C 14,4 C 3,6 km/h (1 Bft)
26/10/2012 13:20 14,4 C 87 % 1006,8 hPa 0,0 mm 0,7 km/h (0 Bft) E-SE 112 0 min 0 W/m 12,3 C 14,4 C 0,7 km/h (0 Bft)
26/10/2012 13:30 14,3 C 87 % 1006,9 hPa 0,0 mm 1,8 km/h (1 Bft) SE 135 0 min 0 W/m 12,2 C 14,3 C 4,0 km/h (1 Bft)
26/10/2012 13:40 14,3 C 87 % 1006,8 hPa 0,0 mm 0,4 km/h (0 Bft) SE 135 0 min 0 W/m 12,2 C 14,3 C 3,2 km/h (1 Bft)
26/10/2012 13:50 14,3 C 88 % 1006,8 hPa 0,0 mm 0,0 km/h (0 Bft) SE 135 0 min 0 W/m 12,3 C 14,3 C 0,0 km/h (0 Bft)
26/10/2012 14:00 14,1 C 88 % 1006,7 hPa 0,0 mm 0,0 km/h (0 Bft) SE 135 0 min 0 W/m 12,1 C 14,1 C 0,0 km/h (0 Bft)
26/10/2012 14:10 13,9 C 88 % 1006,7 hPa 0,0 mm 0,0 km/h (0 Bft) SE 135 0 min 0 W/m 11,9 C 13,9 C 0,0 km/h (0 Bft)
26/10/2012 14:20 13,8 C 88 % 1006,6 hPa 0,0 mm 0,0 km/h (0 Bft) SE 135 0 min 0 W/m 11,8 C 13,8 C 0,0 km/h (0 Bft)
26/10/2012 14:30 13,8 C 88 % 1006,5 hPa 0,0 mm 0,0 km/h (0 Bft) SE 135 0 min 0 W/m 11,8 C 13,8 C 0,0 km/h (0 Bft)
26/10/2012 14:40 13,7 C 88 % 1006,4 hPa 0,0 mm 0,0 km/h (0 Bft) SE 135 0 min 0 W/m 11,7 C 13,7 C 0,0 km/h (0 Bft)
26/10/2012 14:50 13,6 C 88 % 1006,3 hPa 0,0 mm 0,0 km/h (0 Bft) SE 135 0 min 0 W/m 11,6 C 13,6 C 0,0 km/h (0 Bft)
26/10/2012 15:00 13,5 C 88 % 1006,3 hPa 0,0 mm 1,1 km/h (1 Bft) E 90 0 min 0 W/m 11,6 C 13,5 C 3,6 km/h (1 Bft)
26/10/2012 15:10 13,5 C 89 % 1006,2 hPa 0,0 mm 2,2 km/h (1 Bft) SE 135 0 min 0 W/m 11,7 C 13,5 C 4,0 km/h (1 Bft)
26/10/2012 15:20 13,4 C 89 % 1006,1 hPa 0,0 mm 0,4 km/h (0 Bft) E-NE 67 0 min 0 W/m 11,6 C 13,4 C 3,2 km/h (1 Bft)
26/10/2012 15:30 13,4 C 89 % 1006,0 hPa 0,0 mm 0,0 km/h (0 Bft) E-NE 67 0 min 0 W/m 11,6 C 13,4 C 0,0 km/h (0 Bft)
26/10/2012 15:40 13,3 C 89 % 1005,9 hPa 0,0 mm 0,0 km/h (0 Bft) E-NE 67 0 min 0 W/m 11,5 C 13,3 C 0,0 km/h (0 Bft)
26/10/2012 15:50 13,3 C 89 % 1005,8 hPa 0,0 mm 0,0 km/h (0 Bft) E-SE 112 0 min 0 W/m 11,5 C 13,3 C 0,0 km/h (0 Bft)
26/10/2012 16:00 13,3 C 89 % 1005,6 hPa 0,0 mm 0,0 km/h (0 Bft) E-SE 112 0 min 0 W/m 11,5 C 13,3 C 0,0 km/h (0 Bft)
26/10/2012 16:10 13,2 C 89 % 1005,5 hPa 0,0 mm 0,0 km/h (0 Bft) E-SE 112 0 min 0 W/m 11,4 C 13,2 C 0,0 km/h (0 Bft)
26/10/2012 16:20 13,2 C 89 % 1005,5 hPa 0,0 mm 0,0 km/h (0 Bft) E-SE 112 0 min 0 W/m 11,4 C 13,2 C 0,0 km/h (0 Bft)
26/10/2012 16:30 13,1 C 90 % 1005,4 hPa 0,0 mm 0,4 km/h (0 Bft) E-SE 112 0 min 0 W/m 11,5 C 13,1 C 3,2 km/h (1 Bft)
26/10/2012 16:40 13,1 C 90 % 1005,3 hPa 0,0 mm 0,0 km/h (0 Bft) E-NE 67 0 min 0 W/m 11,5 C 13,1 C 0,0 km/h (0 Bft)
26/10/2012 16:50 12,9 C 90 % 1005,2 hPa 0,0 mm 0,0 km/h (0 Bft) E-NE 67 0 min 0 W/m 11,3 C 12,9 C 0,0 km/h (0 Bft)
26/10/2012 17:00 12,8 C 90 % 1005,0 hPa 0,0 mm 0,0 km/h (0 Bft) E-NE 67 0 min 0 W/m 11,2 C 12,8 C 0,0 km/h (0 Bft)
26/10/2012 17:10 12,6 C 90 % 1004,8 hPa 0,0 mm 0,0 km/h (0 Bft) E-NE 67 0 min 0 W/m 11,0 C 12,6 C 0,0 km/h (0 Bft)
26/10/2012 17:20 12,5 C 90 % 1004,8 hPa 0,0 mm 0,0 km/h (0 Bft) E-NE 67 0 min 0 W/m 10,9 C 12,5 C 0,0 km/h (0 Bft)
26/10/2012 17:30 12,3 C 90 % 1004,8 hPa 0,0 mm 0,0 km/h (0 Bft) E-NE 67 0 min 0 W/m 10,7 C 12,3 C 0,0 km/h (0 Bft)
26/10/2012 17:40 12,2 C 90 % 1004,8 hPa 0,0 mm 0,0 km/h (0 Bft) E-NE 67 0 min 0 W/m 10,6 C 12,2 C 0,0 km/h (0 Bft)
26/10/2012 17:50 12,2 C 90 % 1004,7 hPa 0,0 mm 0,0 km/h (0 Bft) E-NE 67 0 min 0 W/m 10,6 C 12,2 C 0,0 km/h (0 Bft)
26/10/2012 18:00 12,2 C 91 % 1004,7 hPa 0,0 mm 0,0 km/h (0 Bft) E-NE 67 0 min 0 W/m 10,8 C 12,2 C 0,0 km/h (0 Bft)
26/10/2012 18:10 12,2 C 91 % 1004,5 hPa 0,0 mm 0,0 km/h (0 Bft) E-NE 67 0 min 0 W/m 10,8 C 12,2 C 0,0 km/h (0 Bft)
26/10/2012 18:20 12,2 C 91 % 1004,6 hPa 0,0 mm 0,0 km/h (0 Bft) E-NE 67 0 min 0 W/m 10,8 C 12,2 C 0,0 km/h (0 Bft)
26/10/2012 18:30 12,3 C 91 % 1004,5 hPa 0,0 mm 0,0 km/h (0 Bft) E-NE 67 0 min 0 W/m 10,9 C 12,3 C 0,0 km/h (0 Bft)
26/10/2012 18:40 12,3 C 91 % 1004,2 hPa 0,0 mm 0,0 km/h (0 Bft) E-NE 67 0 min 0 W/m 10,9 C 12,3 C 0,0 km/h (0 Bft)
26/10/2012 18:50 12,4 C 91 % 1003,9 hPa 0,0 mm 0,0 km/h (0 Bft) E-NE 67 0 min 0 W/m 11,0 C 12,4 C 0,0 km/h (0 Bft)
26/10/2012 19:00 12,5 C 91 % 1003,8 hPa 0,0 mm 0,0 km/h (0 Bft) E-NE 67 0 min 0 W/m 11,1 C 12,5 C 0,0 km/h (0 Bft)
26/10/2012 19:10 12,5 C 91 % 1003,8 hPa 0,0 mm 0,0 km/h (0 Bft) E-NE 67 0 min 0 W/m 11,1 C 12,5 C 0,0 km/h (0 Bft)
26/10/2012 19:20 12,5 C 91 % 1003,7 hPa 0,0 mm 0,0 km/h (0 Bft) E-NE 67 0 min 0 W/m 11,1 C 12,5 C 0,0 km/h (0 Bft)
26/10/2012 19:30 12,5 C 91 % 1003,5 hPa 0,0 mm 0,0 km/h (0 Bft) E-NE 67 0 min 0 W/m 11,1 C 12,5 C 0,0 km/h (0 Bft)
26/10/2012 19:40 12,4 C 91 % 1003,4 hPa 0,0 mm 0,0 km/h (0 Bft) E-NE 67 0 min 0 W/m 11,0 C 12,4 C 0,0 km/h (0 Bft)
26/10/2012 19:50 12,5 C 91 % 1003,3 hPa 0,0 mm 0,0 km/h (0 Bft) E-NE 67 0 min 0 W/m 11,1 C 12,5 C 0,0 km/h (0 Bft)
26/10/2012 20:00 12,4 C 91 % 1003,3 hPa 0,0 mm 0,0 km/h (0 Bft) E-NE 67 0 min 0 W/m 11,0 C 12,4 C 0,0 km/h (0 Bft)
26/10/2012 20:10 12,4 C 91 % 1003,2 hPa 0,0 mm 0,0 km/h (0 Bft) E-NE 67 0 min 0 W/m 11,0 C 12,4 C 0,0 km/h (0 Bft)
26/10/2012 20:20 12,5 C 91 % 1003,0 hPa 0,0 mm 0,0 km/h (0 Bft) E-NE 67 0 min 0 W/m 11,1 C 12,5 C 0,0 km/h (0 Bft)
26/10/2012 20:30 12,5 C 91 % 1003,1 hPa 0,0 mm 0,0 km/h (0 Bft) E-NE 67 0 min 0 W/m 11,1 C 12,5 C 0,0 km/h (0 Bft)
26/10/2012 20:40 12,6 C 91 % 1003,0 hPa 0,0 mm 0,0 km/h (0 Bft) E-NE 67 0 min 0 W/m 11,2 C 12,6 C 0,0 km/h (0 Bft)
26/10/2012 20:50 12,6 C 91 % 1002,9 hPa 0,0 mm 0,0 km/h (0 Bft) E-NE 67 0 min 0 W/m 11,2 C 12,6 C 0,0 km/h (0 Bft)
26/10/2012 21:00 12,6 C 91 % 1002,8 hPa 0,0 mm 0,0 km/h (0 Bft) E-NE 67 0 min 0 W/m 11,2 C 12,6 C 0,0 km/h (0 Bft)
26/10/2012 21:10 12,6 C 91 % 1002,7 hPa 0,0 mm 0,4 km/h (0 Bft) E-NE 67 0 min 0 W/m 11,2 C 12,6 C 3,2 km/h (1 Bft)
26/10/2012 21:20 12,6 C 91 % 1002,7 hPa 0,0 mm 0,0 km/h (0 Bft) E-NE 67 0 min 0 W/m 11,2 C 12,6 C 0,0 km/h (0 Bft)
26/10/2012 21:30 12,6 C 91 % 1002,6 hPa 0,0 mm 0,0 km/h (0 Bft) NE 45 0 min 0 W/m 11,2 C 12,6 C 0,0 km/h (0 Bft)
26/10/2012 21:40 12,6 C 91 % 1002,5 hPa 0,0 mm 0,7 km/h (0 Bft) N 360 0 min 0 W/m 11,2 C 12,6 C 4,3 km/h (1 Bft)
26/10/2012 21:50 12,6 C 91 % 1002,5 hPa 0,1 mm 2,5 km/h (1 Bft) N-NE 22 0 min 0 W/m 11,2 C 12,6 C 6,5 km/h (2 Bft)
26/10/2012 22:00 12,6 C 91 % 1002,5 hPa 0,0 mm 0,0 km/h (0 Bft) N 360 0 min 0 W/m 11,2 C 12,6 C 3,6 km/h (1 Bft)
26/10/2012 22:10 12,5 C 91 % 1002,3 hPa 0,0 mm 0,0 km/h (0 Bft) N 360 0 min 0 W/m 11,1 C 12,5 C 0,0 km/h (0 Bft)
26/10/2012 22:20 12,4 C 91 % 1002,1 hPa 0,0 mm 0,7 km/h (0 Bft) N-NE 22 0 min 0 W/m 11,0 C 12,4 C 0,7 km/h (0 Bft)
26/10/2012 22:30 12,4 C 91 % 1002,0 hPa 0,0 mm 2,9 km/h (1 Bft) N-NE 22 0 min 0 W/m 11,0 C 12,4 C 4,3 km/h (1 Bft)
26/10/2012 22:40 12,4 C 91 % 1001,9 hPa 0,0 mm 1,1 km/h (1 Bft) N-NE 22 0 min 0 W/m 11,0 C 12,4 C 3,6 km/h (1 Bft)
26/10/2012 22:50 12,4 C 92 % 1001,9 hPa 0,0 mm 0,0 km/h (0 Bft) N 360 0 min 0 W/m 11,1 C 12,4 C 0,0 km/h (0 Bft)
26/10/2012 23:00 12,4 C 92 % 1001,8 hPa 0,0 mm 0,7 km/h (0 Bft) N 360 0 min 0 W/m 11,1 C 12,4 C 4,3 km/h (1 Bft)
26/10/2012 23:10 12,4 C 92 % 1001,6 hPa 0,0 mm 0,0 km/h (0 Bft) N 360 0 min 0 W/m 11,1 C 12,4 C 0,0 km/h (0 Bft)
26/10/2012 23:20 12,4 C 92 % 1001,6 hPa 0,0 mm 0,0 km/h (0 Bft) N 360 0 min 0 W/m 11,1 C 12,4 C 0,0 km/h (0 Bft)
26/10/2012 23:30 12,4 C 92 % 1001,6 hPa 0,0 mm 0,0 km/h (0 Bft) N-NE 22 0 min 0 W/m 11,1 C 12,4 C 0,0 km/h (0 Bft)
26/10/2012 23:40 12,4 C 92 % 1001,6 hPa 0,0 mm 0,0 km/h (0 Bft) N-NE 22 0 min 0 W/m 11,1 C 12,4 C 0,0 km/h (0 Bft)
26/10/2012 23:50 12,4 C 92 % 1001,6 hPa 0,0 mm 0,4 km/h (0 Bft) N-NE 22 0 min 0 W/m 11,1 C 12,4 C 0,4 km/h (0 Bft)
_ Min-Heure 00:00 06:30 23:50 - 23:40 - - - - 00:00 00:00 23:40
Minimum _ 11,0 C 65 % 1001,6 hPa - 0,0 km/h (0 Bft) - - - - 10,1 C 11,0 C 0,0 km/h (0 Bft)
_ Max-Heure 06:30 00:30 02:40 21:50 05:00 - - 23:50 23:50 07:20 06:30 04:40
Maximum _ 20,8 C 94 % 1010,3 hPa 0,1 mm 7,6 km/h
S (2 Bft)
- - 0 min 0 W/m 14,3 C 20,8 C 9,7 km/h
E-SE (2 Bft)
Moyenne _ 15,0 C 83 % 1006,6 hPa #0,1 mm 0,8 km/h (0 Bft) E-NE - #0 min. 0 W/m 12,1 C 15,0 C 1,8 km/h (1 Bft)
Saint Bonnet de Bellac- Haute Vienne - France